Wakefield, VA

10:27 AM EDT on October 15, 2019 (GMT -0400)
Wakefield Municipal

Weather History for KAKQ - July, 2019

Change the Weather History Date:

Thursday, July 18, 2019

  Actual Average (KJGG) Record (KJGG)
Temperature  
Mean Temperature 86 °F -  
Max Temperature 95 °F 89 °F 102 °F (2010)
Min Temperature 78 °F 66 °F 54 °F (1987)
Cooling Degree Days 20    
Growing Degree Days 36 (Base 50)    
Moisture  
Dew Point 74 °F    
Average Humidity 72    
Maximum Humidity 93    
Minimum Humidity 51    
Precipitation  
Precipitation 0.01 in - - ()
Sea Level Pressure  
Sea Level Pressure 29.92 in    
Wind  
Wind Speed 4 mph (SSW)    
Max Wind Speed 8 mph    
Max Gust Speed -    
Visibility 10 miles    
Events Thunderstorm    
Averages and records for this station are not official NWS values.
T = Trace of Precipitation, MM = Missing Value Source: NWS Daily Summary

Daily Weather History Graph

Daily Weather History Graph

Search for Another Location

Airport or City:

Astronomy

Jul. 18, 2019 Rise Set
Actual Time 6:02 AM EDT 8:25 PM EDT
Civil Twilight 5:32 AM EDT 8:55 PM EDT
Nautical Twilight 4:55 AM EDT 9:32 PM EDT
Astronomical Twilight 4:15 AM EDT 10:12 PM EDT
Moon 9:52 PM EDT (7/18) 7:28 AM EDT (7/18)
Length of Visible Light 15h 23m
Length of Day
14h 23m
Full, 97% of the Moon is Illuminated
Jul 18
Full
Jul 24
Last Quarter
Jul 31
New
Aug 7
First Quarter
Aug 15
Full

Hourly Weather History & Observations

Time (EDT) Temp. Heat Index Dew Point Humidity Pressure Visibility Wind Dir Wind Speed Gust Speed Precip Events Conditions
12:54 AM 78.1 °F - 75.9 °F 93% 29.96 in 5.0 mi Calm Calm - 0.01 in   Partly Cloudy
1:54 AM 81.0 °F 86.7 °F 75.0 °F 82% 29.96 in 10.0 mi SSW 4.6 mph - N/A Thunderstorm Partly Cloudy
2:04 AM 81.0 °F 86.7 °F 75.0 °F 82% 29.96 in 10.0 mi South 4.6 mph - N/A Thunderstorm Thunderstorm
2:18 AM - - - N/A% - - North - - N/A   Unknown
2:23 AM 81.0 °F 86.7 °F 75.0 °F 82% 29.95 in 10.0 mi Variable 3.5 mph - N/A Thunderstorm Partly Cloudy
2:31 AM 80.1 °F 85.1 °F 75.0 °F 85% 29.95 in 10.0 mi South 4.6 mph - N/A Thunderstorm Thunderstorm
2:46 AM 80.1 °F 84.5 °F 73.9 °F 81% 29.95 in 10.0 mi Variable 5.8 mph - N/A Thunderstorm Partly Cloudy
2:54 AM 80.1 °F 84.5 °F 73.9 °F 81% 29.94 in 10.0 mi Variable 4.6 mph - N/A   Clear
3:54 AM 79.0 °F - 73.0 °F 82% 29.92 in 10.0 mi Variable 4.6 mph - 0.00 in   Clear
4:54 AM 79.0 °F - 72.0 °F 79% 29.91 in 10.0 mi Variable 5.8 mph - N/A   Clear
5:54 AM 78.1 °F - 73.0 °F 84% 29.92 in 10.0 mi SSW 4.6 mph - N/A   Clear
6:54 AM 78.1 °F - 73.0 °F 84% 29.93 in 10.0 mi SSW 4.6 mph - N/A   Clear
7:54 AM 80.1 °F 84.2 °F 73.0 °F 79% 29.94 in 10.0 mi SW 6.9 mph - N/A   Clear
8:54 AM 81.0 °F 86.2 °F 73.9 °F 79% 29.94 in 10.0 mi SSW 5.8 mph - N/A   Clear
9:54 AM 86.0 °F 93.8 °F 73.9 °F 67% 29.94 in 10.0 mi Variable 6.9 mph - N/A   Clear
10:54 AM 87.1 °F 95.4 °F 73.9 °F 65% 29.94 in 10.0 mi SW 6.9 mph - N/A   Clear
11:54 AM 89.1 °F 99.1 °F 75.0 °F 63% 29.92 in 10.0 mi SSW 5.8 mph - N/A   Partly Cloudy
12:54 PM 91.0 °F 101.6 °F 75.0 °F 59% 29.91 in 10.0 mi Variable 6.9 mph - N/A   Scattered Clouds
1:54 PM 91.0 °F 101.6 °F 75.0 °F 59% 29.90 in 10.0 mi SW 6.9 mph - N/A   Mostly Cloudy
2:54 PM 91.9 °F 103.2 °F 75.0 °F 58% 29.89 in 10.0 mi SW 8.1 mph - N/A   Mostly Cloudy
3:54 PM 93.0 °F 103.2 °F 73.9 °F 54% 29.88 in 10.0 mi South 5.8 mph - N/A   Partly Cloudy
4:54 PM 93.9 °F 103.4 °F 73.0 °F 51% 29.86 in 10.0 mi WSW 8.1 mph - N/A   Partly Cloudy
5:54 PM 93.9 °F 103.4 °F 73.0 °F 51% 29.86 in 10.0 mi South 6.9 mph - N/A   Clear
6:54 PM 93.0 °F 101.9 °F 73.0 °F 52% 29.86 in 10.0 mi Variable 4.6 mph - N/A   Clear
7:54 PM 88.0 °F 98.5 °F 75.9 °F 67% 29.88 in 10.0 mi South 3.5 mph - N/A   Partly Cloudy
8:54 PM 84.0 °F 90.2 °F 73.0 °F 69% 29.88 in 10.0 mi SSW 6.9 mph - N/A   Partly Cloudy
9:54 PM 81.0 °F 85.2 °F 72.0 °F 74% 29.94 in 10.0 mi SSW 3.5 mph - N/A   Partly Cloudy
10:54 PM 80.1 °F 83.8 °F 72.0 °F 76% 29.94 in 10.0 mi South 3.5 mph - N/A   Clear
11:37 PM 80.1 °F 83.8 °F 72.0 °F 76% 29.94 in 10.0 mi Variable 5.8 mph - N/A Thunderstorm Thunderstorm
11:54 PM 80.1 °F 83.8 °F 72.0 °F 76% 29.93 in 10.0 mi SSW 5.8 mph - N/A   Clear